Time,TemperatureF,DewpointF,PressureIn,WindDirection,WindDirectionDegrees,WindSpeedMPH,WindSpeedGustMPH,Humidity,HourlyPrecipIn,Conditions,Clouds,dailyrainin,SoftwareType,DateUTC
2013-10-13 15:58:00,82.9,67.1,29.97,NNE,27,4.2,5.0,59,0.00,RA,,0.02,WeatherDisplay:10.37,2013-10-13 19:58:00,
2013-10-13 15:59:00,82.9,67.1,29.97,NE,49,5.7,9.2,59,0.00,RA,,0.02,WeatherDisplay:10.37,2013-10-13 19:59:00,
2013-10-13 16:04:00,83.0,66.7,29.96,NNW,335,2.8,4.6,58,0.00,RA,,0.02,WeatherDisplay:10.37,2013-10-13 20:04:00,
2013-10-13 16:09:00,83.0,66.7,29.96,NNE,32,4.1,4.1,58,0.00,CLR,,0.02,WeatherDisplay:10.37,2013-10-13 20:09:00,
2013-10-13 16:14:00,83.0,67.2,29.96,ENE,65,3.4,6.9,59,0.00,CLR,,0.02,WeatherDisplay:10.37,2013-10-13 20:14:00,
2013-10-13 16:19:00,83.1,66.3,29.96,NNE,24,4.3,9.2,57,0.00,CLR,,0.02,WeatherDisplay:10.37,2013-10-13 20:19:00,
2013-10-13 16:24:00,83.0,66.7,29.96,NNE,13,4.9,4.9,58,0.00,CLR,,0.02,WeatherDisplay:10.37,2013-10-13 20:24:00,
2013-10-13 16:29:00,83.0,65.7,29.95,East,94,3.7,8.1,56,0.00,CLR,,0.02,WeatherDisplay:10.37,2013-10-13 20:29:00,
2013-10-13 16:34:00,83.0,66.7,29.96,ENE,67,5.0,8.1,58,0.00,CLR,,0.02,WeatherDisplay:10.37,2013-10-13 20:34:00,
2013-10-13 16:39:00,83.0,67.2,29.96,North,355,10.4,11.5,59,0.00,CLR,,0.02,WeatherDisplay:10.37,2013-10-13 20:39:00,
2013-10-13 16:44:00,82.8,65.5,29.95,NE,47,5.6,8.1,56,0.00,CLR,,0.02,WeatherDisplay:10.37,2013-10-13 20:44:00,
2013-10-13 16:49:00,82.8,66.5,29.95,NE,34,1.7,6.0,58,0.00,CLR,,0.02,WeatherDisplay:10.37,2013-10-13 20:49:00,
2013-10-13 16:54:00,82.7,66.9,29.95,ENE,60,2.2,5.8,59,0.00,CLR,,0.02,WeatherDisplay:10.37,2013-10-13 20:54:00,
2013-10-13 16:59:00,82.7,66.9,29.95,NE,51,5.6,9.2,59,0.00,CLR,,0.02,WeatherDisplay:10.37,2013-10-13 20:59:00,
2013-10-13 17:04:00,82.6,66.3,29.95,NE,46,5.5,8.1,58,0.00,CLR,,0.02,WeatherDisplay:10.37,2013-10-13 21:04:00,
2013-10-13 17:09:00,82.4,67.1,29.95,ENE,66,2.8,4.6,60,0.00,CLR,,0.02,WeatherDisplay:10.37,2013-10-13 21:09:00,
2013-10-13 17:14:00,82.4,67.1,29.95,ENE,66,3.8,9.0,60,0.00,CLR,,0.02,WeatherDisplay:10.37,2013-10-13 21:14:00,
2013-10-13 17:19:00,82.3,67.0,29.95,NE,35,5.2,9.2,60,0.00,CLR,,0.02,WeatherDisplay:10.37,2013-10-13 21:19:00,
2013-10-13 17:24:00,82.3,67.0,29.95,NNE,17,7.1,9.2,60,0.00,CLR,,0.02,WeatherDisplay:10.37,2013-10-13 21:24:00,
2013-10-13 17:29:00,82.2,66.9,29.95,North,5,6.4,6.4,60,0.00,CLR,,0.02,WeatherDisplay:10.37,2013-10-13 21:29:00,
2013-10-13 17:34:00,81.9,67.1,29.95,ENE,71,8.2,11.5,61,0.00,CLR,,0.02,WeatherDisplay:10.37,2013-10-13 21:34:00,
2013-10-13 17:39:00,81.8,68.0,29.95,NE,38,6.6,9.2,63,0.00,CLR,,0.02,WeatherDisplay:10.37,2013-10-13 21:39:00,
2013-10-13 17:44:00,81.6,67.3,29.96,ENE,60,5.3,7.0,62,0.00,CLR,,0.02,WeatherDisplay:10.37,2013-10-13 21:44:00,
2013-10-13 17:49:00,81.6,67.3,29.96,NNE,28,3.2,6.9,62,0.00,CLR,,0.02,WeatherDisplay:10.37,2013-10-13 21:49:00,
2013-10-13 17:54:00,81.5,67.7,29.96,NE,48,3.1,4.6,63,0.00,CLR,,0.02,WeatherDisplay:10.37,2013-10-13 21:54:00,
2013-10-13 17:59:00,81.4,67.6,29.96,NE,38,2.9,3.5,63,0.00,CLR,,0.02,WeatherDisplay:10.37,2013-10-13 21:59:00,
2013-10-13 18:04:00,81.3,67.5,29.96,NNE,20,4.2,5.8,63,0.00,CLR,,0.02,WeatherDisplay:10.37,2013-10-13 22:04:00,
2013-10-13 18:09:00,81.2,66.5,29.96,NNE,28,6.0,8.1,61,0.00,CLR,,0.02,WeatherDisplay:10.37,2013-10-13 22:09:00,
2013-10-13 18:14:00,81.1,67.3,29.96,NE,36,4.6,4.6,63,0.00,CLR,,0.02,WeatherDisplay:10.37,2013-10-13 22:14:00,
2013-10-13 18:19:00,81.0,67.2,29.96,NE,49,2.2,5.8,63,0.00,CLR,,0.02,WeatherDisplay:10.37,2013-10-13 22:19:00,
2013-10-13 18:24:00,80.9,66.7,29.96,NNE,32,9.8,9.8,62,0.00,CLR,,0.02,WeatherDisplay:10.37,2013-10-13 22:24:00,
2013-10-13 18:29:00,80.7,66.9,29.96,NNE,17,4.0,8.1,63,0.00,CLR,,0.02,WeatherDisplay:10.37,2013-10-13 22:29:00,
2013-10-13 18:34:00,80.5,66.3,29.97,ENE,67,7.0,10.4,62,0.00,CLR,,0.02,WeatherDisplay:10.37,2013-10-13 22:34:00,
2013-10-13 18:39:00,80.3,67.0,29.97,NE,48,3.3,5.8,64,0.00,CLR,,0.02,WeatherDisplay:10.37,2013-10-13 22:39:00,
2013-10-13 18:44:00,80.1,66.8,29.97,East,79,3.0,5.8,64,0.00,CLR,,0.02,WeatherDisplay:10.37,2013-10-13 22:44:00,
2013-10-13 18:50:00,80.0,66.7,29.97,NNE,14,3.9,6.0,64,0.00,CLR,,0.02,WeatherDisplay:10.37,2013-10-13 22:50:00,
2013-10-13 18:55:00,79.8,67.0,29.97,NE,43,4.6,5.8,65,0.00,CLR,,0.02,WeatherDisplay:10.37,2013-10-13 22:55:00,
2013-10-13 19:00:00,79.6,66.3,29.97,NE,37,4.5,4.6,64,0.00,CLR,,0.02,WeatherDisplay:10.37,2013-10-13 23:00:00,
2013-10-13 19:05:00,79.5,66.3,29.97,NE,41,2.0,3.5,64,0.00,CLR,,0.02,WeatherDisplay:10.37,2013-10-13 23:05:00,
2013-10-13 19:10:00,79.4,66.6,29.97,NE,48,3.8,3.8,65,0.00,CLR,,0.02,WeatherDisplay:10.37,2013-10-13 23:10:00,
2013-10-13 19:15:00,79.4,65.7,29.97,NE,49,4.6,9.2,63,0.00,CLR,,0.02,WeatherDisplay:10.37,2013-10-13 23:15:00,
2013-10-13 19:20:00,79.4,65.2,29.97,NNE,23,3.1,5.8,62,0.00,CLR,,0.02,WeatherDisplay:10.37,2013-10-13 23:20:00,
2013-10-13 19:25:00,79.4,65.2,29.97,NNE,26,4.8,6.9,62,0.00,CLR,,0.02,WeatherDisplay:10.37,2013-10-13 23:25:00,
2013-10-13 19:30:00,79.4,66.6,29.97,NE,40,3.0,3.5,65,0.00,CLR,,0.02,WeatherDisplay:10.37,2013-10-13 23:30:00,
2013-10-13 19:35:00,79.3,65.6,29.97,ENE,59,0.0,0.0,63,0.00,CLR,,0.02,WeatherDisplay:10.37,2013-10-13 23:35:00,
2013-10-13 19:40:00,79.2,65.5,29.97,NE,53,1.9,3.5,63,0.00,CLR,,0.02,WeatherDisplay:10.37,2013-10-13 23:40:00,
2013-10-13 19:45:00,79.0,65.3,29.97,NE,48,0.7,2.3,63,0.00,CLR,,0.02,WeatherDisplay:10.37,2013-10-13 23:45:00,
2013-10-13 19:50:00,79.0,66.2,29.97,NNE,30,4.7,5.8,65,0.00,CLR,,0.02,WeatherDisplay:10.37,2013-10-13 23:50:00,
2013-10-13 19:55:00,78.9,65.7,29.97,NNE,30,1.9,3.5,64,0.00,CLR,,0.02,WeatherDisplay:10.37,2013-10-13 23:55:00,
2013-10-13 20:00:00,78.8,65.6,29.97,NNE,32,2.6,3.5,64,0.00,CLR,,0.02,WeatherDisplay:10.37,2013-10-14 00:00:00,
2013-10-13 20:05:00,78.8,66.5,29.98,NNE,32,1.8,3.5,66,0.00,CLR,,0.02,WeatherDisplay:10.37,2013-10-14 00:05:00,
2013-10-13 20:10:00,78.7,66.4,29.98,NE,34,1.1,2.3,66,0.00,CLR,,0.02,WeatherDisplay:10.37,2013-10-14 00:10:00,
2013-10-13 20:15:00,78.5,65.8,29.98,NE,34,0.0,0.0,65,0.00,CLR,,0.02,WeatherDisplay:10.37,2013-10-14 00:15:00,
2013-10-13 20:20:00,78.4,66.5,29.98,NE,34,0.0,0.0,67,0.00,CLR,,0.02,WeatherDisplay:10.37,2013-10-14 00:20:00,
2013-10-13 20:25:00,78.2,67.2,29.98,NE,34,0.0,0.0,69,0.00,CLR,,0.02,WeatherDisplay:10.37,2013-10-14 00:25:00,
2013-10-13 20:30:00,77.9,67.7,29.98,NE,34,0.0,0.0,71,0.00,CLR,,0.02,WeatherDisplay:10.37,2013-10-14 00:30:00,
2013-10-13 20:35:00,77.5,68.2,29.99,NE,34,0.0,0.0,73,0.00,CLR,,0.02,WeatherDisplay:10.37,2013-10-14 00:35:00,
2013-10-13 20:40:00,77.3,68.4,29.99,NE,34,0.0,0.0,74,0.00,CLR,,0.02,WeatherDisplay:10.37,2013-10-14 00:40:00,
2013-10-13 20:45:00,77.0,68.1,29.99,NE,34,0.0,0.0,74,0.00,CLR,,0.02,WeatherDisplay:10.37,2013-10-14 00:45:00,
2013-10-13 20:50:00,76.7,67.8,29.99,NE,34,0.0,0.0,74,0.00,CLR,,0.02,WeatherDisplay:10.37,2013-10-14 00:50:00,
2013-10-13 20:55:00,76.4,68.3,29.99,NE,34,0.0,0.0,76,0.00,CLR,,0.02,WeatherDisplay:10.37,2013-10-14 00:55:00,
2013-10-13 21:00:00,76.0,67.9,29.99,NE,34,0.0,0.0,76,0.00,CLR,,0.02,WeatherDisplay:10.37,2013-10-14 01:00:00,
2013-10-13 21:05:00,75.6,68.3,29.99,NE,34,0.0,0.0,78,0.00,CLR,,0.02,WeatherDisplay:10.37,2013-10-14 01:05:00,
2013-10-13 21:10:00,75.2,67.9,30.00,NE,34,0.0,0.0,78,0.00,CLR,,0.02,WeatherDisplay:10.37,2013-10-14 01:10:00,
2013-10-13 21:15:00,74.9,68.3,30.00,NE,34,0.0,0.0,80,0.00,CLR,,0.02,WeatherDisplay:10.37,2013-10-14 01:15:00,
2013-10-13 21:20:00,74.6,68.0,30.00,NE,34,0.0,0.0,80,0.00,CLR,,0.02,WeatherDisplay:10.37,2013-10-14 01:20:00,
2013-10-13 21:25:00,74.3,68.1,30.00,NE,34,0.0,0.0,81,0.00,CLR,,0.02,WeatherDisplay:10.37,2013-10-14 01:25:00,
2013-10-13 21:30:00,74.1,68.3,29.99,NE,34,0.0,0.0,82,0.00,CLR,,0.02,WeatherDisplay:10.37,2013-10-14 01:30:00,
2013-10-13 21:35:00,73.9,68.4,30.00,NE,34,0.0,0.0,83,0.00,CLR,,0.02,WeatherDisplay:10.37,2013-10-14 01:35:00,
2013-10-13 21:40:00,73.7,67.9,30.00,NE,34,0.0,0.0,82,0.00,CLR,,0.02,WeatherDisplay:10.37,2013-10-14 01:40:00,
2013-10-13 21:45:00,73.3,67.5,30.00,NE,34,0.0,0.0,82,0.00,CLR,,0.02,WeatherDisplay:10.37,2013-10-14 01:45:00,
2013-10-13 21:50:00,73.1,67.6,30.01,NE,34,0.0,0.0,83,0.00,CLR,,0.02,WeatherDisplay:10.37,2013-10-14 01:50:00,
2013-10-13 21:55:00,73.0,67.9,30.00,NE,34,0.0,0.0,84,0.00,CLR,,0.02,WeatherDisplay:10.37,2013-10-14 01:55:00,
2013-10-13 22:00:00,72.9,68.1,30.00,NE,34,0.0,0.0,85,0.00,CLR,,0.02,WeatherDisplay:10.37,2013-10-14 02:00:00,
2013-10-13 22:05:00,72.9,68.1,30.00,NE,34,0.0,0.0,85,0.00,CLR,,0.02,WeatherDisplay:10.37,2013-10-14 02:05:00,
2013-10-13 22:10:00,72.8,68.0,30.00,NE,34,0.0,0.0,85,0.00,CLR,,0.02,WeatherDisplay:10.37,2013-10-14 02:10:00,
2013-10-13 22:15:00,72.6,67.8,30.01,NE,34,0.0,0.0,85,0.00,CLR,,0.02,WeatherDisplay:10.37,2013-10-14 02:15:00,
2013-10-13 22:20:00,72.5,67.7,30.00,NE,34,0.0,0.0,85,0.00,CLR,,0.02,WeatherDisplay:10.37,2013-10-14 02:20:00,
2013-10-13 22:25:00,72.3,67.5,30.01,NE,34,0.0,0.0,85,0.00,CLR,,0.02,WeatherDisplay:10.37,2013-10-14 02:25:00,
2013-10-13 22:30:00,72.2,68.1,30.01,NE,34,0.0,0.0,87,0.00,CLR,,0.02,WeatherDisplay:10.37,2013-10-14 02:30:00,
2013-10-13 22:35:00,72.2,68.1,30.00,NE,34,0.0,0.0,87,0.00,CLR,,0.02,WeatherDisplay:10.37,2013-10-14 02:35:00,
2013-10-13 22:40:00,72.2,68.4,30.01,NE,34,0.0,0.0,88,0.00,CLR,,0.02,WeatherDisplay:10.37,2013-10-14 02:40:00,
2013-10-13 22:45:00,72.1,68.0,30.01,NE,34,0.0,0.0,87,0.00,CLR,,0.02,WeatherDisplay:10.37,2013-10-14 02:45:00,
2013-10-13 22:50:00,72.0,67.9,30.01,NE,34,0.0,0.0,87,0.00,CLR,,0.02,WeatherDisplay:10.37,2013-10-14 02:50:00,
2013-10-13 22:55:00,72.2,68.8,30.01,NE,34,0.0,0.0,89,0.00,CLR,,0.02,WeatherDisplay:10.37,2013-10-14 02:55:00,
2013-10-13 23:00:00,72.2,68.8,30.01,NE,34,0.0,0.0,89,0.00,CLR,,0.02,WeatherDisplay:10.37,2013-10-14 03:00:00,
2013-10-13 23:05:00,72.2,68.8,30.01,NE,34,0.0,0.0,89,0.00,CLR,,0.02,WeatherDisplay:10.37,2013-10-14 03:05:00,
2013-10-13 23:10:00,72.1,68.3,30.01,NE,34,0.0,0.0,88,0.00,CLR,,0.02,WeatherDisplay:10.37,2013-10-14 03:10:00,
2013-10-13 23:15:00,72.1,68.3,30.01,NE,34,0.0,0.0,88,0.00,CLR,,0.02,WeatherDisplay:10.37,2013-10-14 03:15:00,
2013-10-13 23:20:00,72.1,68.3,30.01,NE,34,0.0,0.0,88,0.00,CLR,,0.02,WeatherDisplay:10.37,2013-10-14 03:20:00,
2013-10-13 23:25:00,72.0,67.9,30.01,NE,34,0.0,0.0,87,0.00,CLR,,0.02,WeatherDisplay:10.37,2013-10-14 03:25:00,
2013-10-13 23:30:00,72.0,68.2,30.01,NE,34,0.0,0.0,88,0.00,CLR,,0.02,WeatherDisplay:10.37,2013-10-14 03:30:00,
2013-10-13 23:35:00,72.0,68.2,30.01,NE,34,0.0,0.0,88,0.00,CLR,,0.02,WeatherDisplay:10.37,2013-10-14 03:35:00,
2013-10-13 23:41:00,72.0,68.2,30.01,NE,34,0.0,0.0,88,0.00,CLR,,0.02,WeatherDisplay:10.37,2013-10-14 03:41:00,
2013-10-13 23:46:00,71.9,68.5,30.01,NE,34,0.0,0.0,89,0.00,CLR,,0.02,WeatherDisplay:10.37,2013-10-14 03:46:00,
2013-10-13 23:51:00,71.9,68.2,30.01,NE,34,0.0,0.0,88,0.00,CLR,,0.02,WeatherDisplay:10.37,2013-10-14 03:51:00,
2013-10-13 23:56:00,71.7,68.0,30.01,NE,34,0.0,0.0,88,0.00,CLR,,0.02,WeatherDisplay:10.37,2013-10-14 03:56:00,